Weather History for KCVH - December, 2013

Change the Weather History Date:

Thursday, December 12, 2013

  Actual Average (KSNS) Record (KSNS)
Temperature  
Mean Temperature 46 °F 51 °F  
Max Temperature 64 °F 61 °F 77 °F (1988)
Min Temperature 28 °F 41 °F 27 °F (1932)
Degree Days  
Heating Degree Days 19 14  
Month to date heating degree days 162  
Since 1 July heating degree days 780  
Cooling Degree Days 0 0  
Month to date cooling degree days 0  
Year to date cooling degree days 130  
Moisture  
Dew Point 28 °F    
Average Humidity 61    
Maximum Humidity 80    
Minimum Humidity 26    
Precipitation  
Precipitation 0.00 in 0.05 in 0.72 in (1994)
Month to date precipitation 0.67  
Year to date precipitation 11.57  
Since 1 July precipitation 2.85  
Sea Level Pressure  
Sea Level Pressure 30.22 in    
Wind  
Wind Speed 1 mph (SSW)    
Max Wind Speed 10 mph    
Max Gust Speed -    
Visibility 10 miles    
Events      
T = Trace of Precipitation, MM = Missing Value Source: NWS Daily Summary

Daily Weather History Graph

Daily Weather History Graph

Search for Another Location

Airport or City:

Trip Planner

Search our weather history database for the weather conditions in past years. The results will help you decide how hot, cold, wet, or windy it might be!

Date:

Astronomy

Dec. 12, 2013 Rise Set
Actual Time 7:09 AM PST 4:49 PM PST
Civil Twilight 6:40 AM PST 5:18 PM PST
Nautical Twilight 6:08 AM PST 5:50 PM PST
Astronomical Twilight 5:36 AM PST 6:22 PM PST
Moon 1:55 PM PST (12/12) 2:42 AM PST (12/12)
Length of Visible Light 10h 37m
Length of Day
9h 40m
Waxing Gibbous, 81% of the Moon is Illuminated
Dec 12
Waxing Gibbous
Dec 17
Full
Dec 25
Last Quarter
Jan 1
New
Jan 7
First Quarter

Hourly Weather History & Observations

Time (PST) Temp. Windchill Dew Point Humidity Pressure Visibility Wind Dir Wind Speed Gust Speed Precip Events Conditions
12:10 AM 32.0 °F - 24.8 °F 75% 30.21 in 3.0 mi Calm Calm - N/A   Clear
12:30 AM 32.0 °F - 23.0 °F 69% 30.21 in 6.0 mi Calm Calm - N/A   Clear
12:50 AM 32.0 °F - 23.0 °F 69% 30.21 in 10.0 mi Calm Calm - N/A   Clear
1:10 AM 32.0 °F - 24.8 °F 75% 30.21 in 10.0 mi Calm Calm - N/A   Clear
1:30 AM 32.0 °F - 23.0 °F 69% 30.21 in 8.0 mi Calm Calm - N/A   Clear
1:50 AM 32.0 °F - 26.6 °F 80% 30.21 in 9.0 mi Calm Calm - N/A   Clear
2:10 AM 32.0 °F - 24.8 °F 75% 30.22 in 10.0 mi Calm Calm - N/A   Clear
2:30 AM 32.0 °F - 24.8 °F 75% 30.22 in 10.0 mi Calm Calm - N/A   Clear
2:50 AM 30.2 °F - 21.2 °F 69% 30.22 in 6.0 mi Calm Calm - N/A   Clear
3:10 AM 30.2 °F - 24.8 °F 80% 30.22 in 10.0 mi Calm Calm - N/A   Clear
3:30 AM 32.0 °F - 24.8 °F 75% 30.22 in 9.0 mi Calm Calm - N/A   Clear
3:50 AM 32.0 °F - 23.0 °F 69% 30.22 in 9.0 mi Calm Calm - N/A   Clear
4:10 AM 28.4 °F 22.2 °F 23.0 °F 80% 30.22 in 10.0 mi SE 5.8 mph - N/A   Clear
4:30 AM 30.2 °F - 21.2 °F 69% 30.22 in 10.0 mi Calm Calm - N/A   Clear
4:50 AM 30.2 °F - 23.0 °F 75% 30.22 in 10.0 mi Calm Calm - N/A   Clear
5:10 AM 30.2 °F - 23.0 °F 75% 30.22 in 10.0 mi Calm Calm - N/A   Clear
5:30 AM 30.2 °F - 23.0 °F 75% 30.22 in 10.0 mi Calm Calm - N/A   Clear
5:50 AM 30.2 °F - 23.0 °F 75% 30.22 in 10.0 mi Calm Calm - N/A   Clear
6:10 AM 30.2 °F - 23.0 °F 75% 30.23 in 10.0 mi Calm Calm - N/A   Clear
6:30 AM 28.4 °F - 23.0 °F 80% 30.23 in 10.0 mi Calm Calm - N/A   Clear
6:50 AM 28.4 °F - 23.0 °F 80% 30.24 in 10.0 mi Calm Calm - N/A   Clear
7:10 AM 28.4 °F - 23.0 °F 80% 30.25 in 10.0 mi Calm Calm - N/A   Clear
7:30 AM 28.4 °F - 23.0 °F 80% 30.25 in 10.0 mi Calm Calm - N/A   Clear
7:50 AM 30.2 °F - 24.8 °F 80% 30.26 in 8.0 mi Calm Calm - N/A   Clear
8:10 AM 32.0 °F - 26.6 °F 80% 30.26 in 10.0 mi Calm Calm - N/A   Clear
8:30 AM 33.8 °F - 26.6 °F 75% 30.26 in 9.0 mi Calm Calm - N/A   Clear
8:50 AM 35.6 °F - 28.4 °F 75% 30.26 in 10.0 mi Calm Calm - N/A   Clear
9:10 AM 37.4 °F - 28.4 °F 70% 30.26 in 10.0 mi Calm Calm - N/A   Clear
9:30 AM 39.2 °F - 30.2 °F 70% 30.26 in 10.0 mi Calm Calm - N/A   Clear
9:50 AM 42.8 °F - 30.2 °F 61% 30.25 in 10.0 mi Calm Calm - N/A   Clear
10:10 AM 44.6 °F - 30.2 °F 57% 30.25 in 9.0 mi Calm Calm - N/A   Clear
10:30 AM 46.4 °F - 30.2 °F 53% 30.26 in 10.0 mi Calm Calm - N/A   Clear
10:50 AM 46.4 °F 45.2 °F 32.0 °F 57% 30.25 in 9.0 mi NW 3.5 mph - N/A   Clear
11:10 AM 48.2 °F - 30.2 °F 50% 30.25 in 8.0 mi Calm Calm - N/A   Clear
11:30 AM 50.0 °F - 30.2 °F 47% 30.24 in 7.0 mi Calm Calm - N/A   Clear
11:50 AM 51.8 °F - 30.2 °F 44% 30.23 in 8.0 mi Calm Calm - N/A   Clear
12:10 PM 55.4 °F - 30.2 °F 38% 30.21 in 10.0 mi Calm Calm - N/A   Clear
12:30 PM 55.4 °F - 30.2 °F 38% 30.19 in 10.0 mi Calm Calm - N/A   Clear
12:50 PM 57.2 °F - 30.2 °F 36% 30.18 in 10.0 mi Calm Calm - N/A   Clear
1:10 PM 57.2 °F - 30.2 °F 36% 30.18 in 10.0 mi Calm Calm - N/A   Clear
1:30 PM 60.8 °F - 28.4 °F 29% 30.17 in 9.0 mi Calm Calm - N/A   Clear
1:50 PM 60.8 °F - 28.4 °F 29% 30.17 in 10.0 mi Calm Calm - N/A   Clear
2:10 PM 62.6 °F - 30.2 °F 30% 30.17 in 9.0 mi Calm Calm - N/A   Clear
2:30 PM 62.6 °F - 30.2 °F 30% 30.17 in 10.0 mi Calm Calm - N/A   Clear
2:50 PM 62.6 °F - 30.2 °F 30% 30.16 in 10.0 mi Calm Calm - N/A   Clear
3:10 PM 62.6 °F - 28.4 °F 27% 30.16 in 10.0 mi Calm Calm - N/A   Clear
3:30 PM 64.4 °F - 28.4 °F 26% 30.16 in 10.0 mi Calm Calm - N/A   Clear
3:50 PM 62.6 °F - 28.4 °F 27% 30.17 in 10.0 mi Calm Calm - N/A   Clear
4:10 PM 62.6 °F - 30.2 °F 30% 30.17 in 10.0 mi Calm Calm - N/A   Clear
4:30 PM 60.8 °F - 30.2 °F 31% 30.17 in 10.0 mi Calm Calm - N/A   Clear
4:50 PM 55.4 °F - 33.8 °F 44% 30.17 in 10.0 mi WSW 8.1 mph - N/A   Clear
5:10 PM 55.4 °F - 33.8 °F 44% 30.18 in 10.0 mi WSW 5.8 mph - N/A   Clear
5:30 PM 51.8 °F - 35.6 °F 54% 30.18 in 10.0 mi SW 9.2 mph - N/A   Clear
5:50 PM 51.8 °F - 37.4 °F 58% 30.18 in 10.0 mi SW 10.4 mph - N/A   Clear
6:10 PM 50.0 °F - 37.4 °F 62% 30.20 in 10.0 mi Calm Calm - N/A   Clear
6:30 PM 51.8 °F - 37.4 °F 58% 30.20 in 10.0 mi Calm Calm - N/A   Clear
6:50 PM 48.2 °F - 37.4 °F 66% 30.21 in 10.0 mi Calm Calm - N/A   Clear
7:10 PM 46.4 °F - 35.6 °F 66% 30.22 in 10.0 mi Calm Calm - N/A   Clear
7:30 PM 46.4 °F - 35.6 °F 66% 30.23 in 10.0 mi Calm Calm - N/A   Clear
7:50 PM 42.8 °F 40.1 °F 32.0 °F 66% 30.23 in 10.0 mi SSE 4.6 mph - N/A   Clear
8:10 PM 41.0 °F 36.4 °F 32.0 °F 70% 30.23 in 10.0 mi SSE 6.9 mph - N/A   Clear
8:30 PM 42.8 °F - 32.0 °F 66% 30.24 in 10.0 mi Calm Calm - N/A   Clear
8:50 PM 42.8 °F 38.6 °F 32.0 °F 66% 30.24 in 10.0 mi South 6.9 mph - N/A   Clear
9:10 PM 39.2 °F - 30.2 °F 70% 30.25 in 10.0 mi Calm Calm - N/A   Clear
9:30 PM 39.2 °F - 30.2 °F 70% 30.25 in 10.0 mi Calm Calm - N/A   Clear
9:50 PM 37.4 °F - 30.2 °F 75% 30.25 in 10.0 mi Calm Calm - N/A   Clear
10:10 PM 37.4 °F - 30.2 °F 75% 30.26 in 10.0 mi Calm Calm - N/A   Clear
10:30 PM 37.4 °F - 28.4 °F 70% 30.26 in 10.0 mi Calm Calm - N/A   Clear
10:50 PM 37.4 °F - 28.4 °F 70% 30.26 in 10.0 mi Calm Calm - N/A   Clear
11:10 PM 37.4 °F - 28.4 °F 70% 30.25 in 10.0 mi Calm Calm - N/A   Clear
11:30 PM 35.6 °F - 28.4 °F 75% 30.25 in 10.0 mi Calm Calm - N/A   Clear
11:50 PM 35.6 °F - 28.4 °F 75% 30.25 in 10.0 mi Calm Calm - N/A   Clear